This is the latest recevied weather packets stored in our database for station/object N8RJC-13. If no packets are shown the sender has not sent any weather packets the latest 10 day(s).
| Time | Temp. | Humidity | Pressure | Rain* | Wind** | Luminosity | Snow |
|---|---|---|---|---|---|---|---|
| 1777189401 | 10° C | 83% | 991.6 hPa | 0 mm | 2.24 m/s, 84° | - | - |
| 1777189341 | 10° C | 83% | 991.6 hPa | 0 mm | 2.24 m/s, 84° | - | - |
| 1777189280 | 10° C | 83% | 991.6 hPa | 0 mm | 2.24 m/s, 84° | - | - |
| 1777189221 | 10° C | 83% | 991.6 hPa | 0 mm | 2.24 m/s, 84° | - | - |
| 1777189161 | 10° C | 83% | 991.4 hPa | 0 mm | 1.34 m/s, 59° | - | - |
| 1777189101 | 10° C | 83% | 991.4 hPa | 0 mm | 1.34 m/s, 59° | - | - |
| 1777189041 | 10° C | 83% | 991.4 hPa | 0 mm | 1.34 m/s, 59° | - | - |
| 1777188981 | 10° C | 83% | 991.4 hPa | 0 mm | 1.34 m/s, 59° | - | - |
| 1777188921 | 10° C | 83% | 991.4 hPa | 0 mm | 1.34 m/s, 59° | - | - |
| 1777188861 | 10.56° C | 84% | 991.6 hPa | 0 mm | 0.89 m/s, 13° | - | - |
| 1777188800 | 10.56° C | 84% | 991.6 hPa | 0 mm | 0.89 m/s, 13° | - | - |
| 1777188741 | 10.56° C | 84% | 991.6 hPa | 0 mm | 0.89 m/s, 13° | - | - |
| 1777188681 | 10.56° C | 84% | 991.6 hPa | 0 mm | 0.89 m/s, 13° | - | - |
| 1777188621 | 10.56° C | 84% | 991.6 hPa | 0 mm | 0.89 m/s, 13° | - | - |
| 1777188561 | 10.56° C | 83% | 991.5 hPa | 0 mm | 0.45 m/s, 56° | - | - |
| 1777188501 | 10.56° C | 83% | 991.5 hPa | 0 mm | 0.45 m/s, 56° | - | - |
| 1777188441 | 10.56° C | 83% | 991.5 hPa | 0 mm | 0.45 m/s, 56° | - | - |
| 1777188381 | 10.56° C | 83% | 991.5 hPa | 0 mm | 0.45 m/s, 56° | - | - |
| 1777188321 | 10.56° C | 83% | 991.5 hPa | 0 mm | 0.45 m/s, 56° | - | - |
| 1777188261 | 10.56° C | 83% | 991.6 hPa | 0 mm | 0.45 m/s, 73° | - | - |
| 1777188200 | 10.56° C | 83% | 991.6 hPa | 0 mm | 0.45 m/s, 73° | - | - |
| 1777188140 | 10.56° C | 83% | 991.6 hPa | 0 mm | 0.45 m/s, 73° | - | - |
| 1777188080 | 10.56° C | 83% | 991.6 hPa | 0 mm | 0.45 m/s, 73° | - | - |
| 1777188021 | 10.56° C | 83% | 991.6 hPa | 0 mm | 0.45 m/s, 73° | - | - |
| 1777187960 | 10.56° C | 83% | 991.3 hPa | 0 mm | 0.45 m/s, 38° | - | - |
* Rain latest hour (hover to see other rain measurements)
** Current wind speed in m/s (hover to see current wind gust speed)